Theta_e
313 313 313 316 317 315 314 314 315 314 313 313 313 313 313 311 308 306 304 307 308 310 306 309 312 309 309 310 310 309 310 312 313 313 315 316 315 314 314 317 320 323 325 327 328 329 330 332 333 333 333 333 332 332 332 331 331 331 331 331 329 327 326 327 327 327 326 325 326 327 326 325 323 322
310 313 312 313 314 315 313 314 314 314 314 313 312 312 312 312 310 307 305 307 306 310 309 307 310 311 308 307 307 307 309 313 313 313 312 313 314 313 312 312 314 318 321 322 324 326 328 330 331 332 333 333 333 333 333 332 332 331 331 327 323 324 327 328 327 326 326 325 327 328 327 326 325 323
308 309 310 310 312 313 313 313 313 313 312 312 312 312 311 311 312 310 307 305 308 307 311 310 308 309 310 308 310 309 307 309 311 312 313 312 313 313 314 313 312 312 312 314 316 318 323 326 328 330 331 333 334 334 334 333 332 331 327 322 320 322 326 327 327 326 326 327 328 328 327 326 325 324
308 307 307 308 308 310 310 311 312 312 313 313 312 312 311 311 311 312 309 306 306 307 309 311 311 309 310 310 309 310 310 311 314 313 312 311 313 313 314 312 312 311 310 310 310 310 315 321 325 326 328 329 332 334 333 330 327 325 323 321 319 321 327 328 327 327 328 328 328 327 327 327 326 325
308 308 307 308 308 308 308 309 309 309 310 311 312 312 311 311 310 309 309 307 306 308 310 310 310 311 310 309 310 309 310 310 309 310 310 310 311 310 311 312 310 310 310 309 308 307 308 311 316 320 323 325 323 320 319 318 319 322 323 321 319 318 323 327 329 327 327 328 328 327 327 327 327 325
310 310 309 309 309 308 308 308 307 308 308 308 309 309 310 310 309 310 310 308 307 305 308 309 310 309 308 308 309 310 311 310 309 308 308 308 309 309 311 311 311 309 308 308 308 307 307 307 307 309 312 313 311 311 311 312 313 315 316 316 316 315 316 322 327 328 329 328 328 327 327 327 326 325
311 310 310 310 310 311 309 309 309 310 309 308 308 308 309 309 309 308 309 309 306 305 306 308 308 310 308 308 310 309 310 310 308 307 307 307 307 308 310 311 310 308 308 307 307 307 307 306 306 306 307 307 307 308 308 308 309 310 310 310 311 311 311 313 319 325 328 328 327 326 327 326 325 323
312 311 310 310 311 311 310 310 309 310 310 310 310 309 309 309 309 309 309 309 309 308 306 308 307 309 310 311 309 308 308 308 308 308 308 308 307 307 308 309 309 308 308 307 307 306 306 306 306 306 305 306 306 306 306 307 307 308 308 309 310 310 310 310 311 316 322 325 323 322 322 321 322 323
315 313 312 312 312 312 310 310 310 310 310 310 310 309 310 309 309 309 310 310 310 308 307 307 309 309 308 309 310 309 307 308 307 307 307 307 308 309 309 309 308 309 308 308 307 307 307 306 306 305 305 305 305 305 305 306 306 306 306 307 307 307 308 308 308 308 311 313 313 313 314 314 318 322
315 315 315 316 315 313 312 312 312 313 312 312 312 312 312 311 310 309 309 309 308 307 306 308 309 309 307 307 308 309 308 307 307 307 308 308 308 309 310 310 309 310 309 309 310 308 307 306 306 305 305 305 305 305 305 305 306 306 306 306 306 306 306 306 305 306 306 307 307 308 309 311 316 320
316 316 316 315 315 315 314 313 313 314 315 315 315 314 313 313 312 311 310 309 307 305 305 306 307 307 309 308 307 309 307 307 306 306 307 309 311 311 310 309 310 310 311 311 310 311 310 310 310 306 305 305 304 305 306 306 307 307 307 306 305 305 305 305 305 304 304 305 305 305 306 307 310 313
319 319 318 318 317 317 317 316 316 317 317 317 315 315 313 312 312 311 311 310 309 308 306 306 306 308 308 310 308 307 306 305 306 306 306 307 309 310 311 311 311 313 312 313 313 312 311 311 310 308 307 307 306 306 307 307 308 309 307 306 305 305 305 304 304 304 304 304 304 304 304 305 306 307
320 321 321 321 321 321 321 322 322 322 321 319 316 316 315 314 313 312 312 311 311 309 308 307 308 308 309 310 309 309 308 306 309 312 310 307 309 310 310 312 313 310 311 312 314 315 316 316 317 317 316 317 312 312 309 310 309 308 306 305 304 304 304 304 304 304 304 304 304 304 304 304 304 304
319 319 320 320 321 322 322 320 316 312 311 314 318 318 317 315 314 313 313 312 311 310 310 310 311 311 312 312 312 310 311 311 311 310 309 307 310 310 310 313 316 316 314 313 314 317 319 317 317 317 316 314 312 311 311 311 309 307 304 304 304 304 303 303 303 303 303 303 303 303 303 304 304 303
318 319 320 320 321 321 320 319 313 310 309 308 308 308 309 314 316 315 313 314 314 313 312 313 312 311 311 312 313 312 313 313 313 312 312 312 311 310 309 308 314 315 314 313 311 314 313 314 315 314 311 310 311 310 310 304 304 303 302 302 302 302 302 302 302 302 302 302 302 302 302 302 301 299
318 319 319 319 320 319 314 312 309 310 308 305 305 306 307 307 306 307 312 314 313 313 312 311 312 312 311 312 313 314 313 312 312 313 313 313 312 311 310 310 310 312 313 312 310 312 309 309 309 307 307 309 309 308 305 303 303 302 301 301 301 301 301 301 301 302 302 301 301 301 301 299 299 298
314 314 315 315 315 312 311 307 304 305 306 307 308 309 310 311 308 300 300 301 310 312 310 310 310 311 310 309 311 310 307 308 308 310 310 311 311 311 310 311 311 311 310 311 311 309 306 307 306 305 307 308 307 307 305 303 302 302 301 301 301 301 301 301 301 301 301 300 300 299 299 298 298 297
308 307 308 309 308 307 305 304 302 303 303 305 308 310 312 312 311 307 302 303 304 307 308 309 308 308 305 306 305 306 305 305 305 306 306 308 308 308 308 311 310 308 308 308 308 307 304 306 306 304 307 308 307 306 303 302 302 302 301 301 300 300 300 300 300 300 300 300 299 299 298 297 297 297
306 304 304 304 303 303 302 302 302 303 304 306 308 310 310 309 308 307 307 307 307 307 308 307 306 304 304 303 303 303 303 304 306 307 307 308 308 309 311 310 308 307 307 306 307 302 303 305 306 304 306 307 308 309 306 303 303 302 301 301 301 300 300 300 300 300 299 299 299 299 298 297 297 297
306 304 302 301 301 301 301 301 296 299 307 307 308 310 310 309 308 306 304 298 299 303 303 304 303 303 301 299 301 300 300 303 304 306 308 309 307 307 307 304 305 303 306 305 306 303 302 303 304 305 307 308 306 307 308 304 303 302 302 301 301 300 300 300 300 299 299 299 299 299 298 297 296 296
305 306 303 301 301 301 300 297 293 294 307 307 308 308 308 307 307 306 306 299 296 295 294 294 295 294 295 295 295 295 295 299 303 306 305 302 303 304 303 302 302 302 304 304 303 303 302 302 301 304 305 305 304 306 307 307 303 301 301 301 301 300 300 299 299 299 299 299 299 299 298 297 297 298
303 305 306 303 300 299 299 294 293 293 304 305 305 306 304 304 303 303 303 303 302 298 297 296 295 295 295 296 297 297 296 296 301 302 301 301 302 301 300 301 300 303 305 304 303 304 301 302 301 303 305 306 306 307 307 307 306 303 303 301 301 301 300 299 299 299 299 299 299 299 298 297 298 301
300 301 303 302 299 300 297 292 293 293 301 303 302 303 303 302 301 301 302 300 299 299 301 301 301 301 300 300 300 300 298 298 300 300 300 301 302 300 298 297 298 302 303 304 302 303 301 301 302 301 302 300 306 307 305 306 306 306 306 307 307 301 301 300 299 299 299 299 299 299 298 298 298 304
301 300 301 301 293 290 291 292 292 293 293 300 301 301 300 299 300 302 301 302 299 297 298 298 297 297 297 297 298 298 299 300 300 299 300 300 300 300 299 298 298 300 300 302 301 302 298 296 302 299 301 300 298 305 306 305 306 305 305 306 305 302 302 301 299 298 298 298 298 298 298 298 299 305
300 302 302 300 299 288 288 291 292 293 293 296 300 299 300 300 297 297 299 298 298 297 297 296 296 295 295 296 297 298 298 299 299 299 298 299 300 300 300 299 298 299 300 302 297 302 300 296 299 298 298 297 297 301 304 304 303 302 302 302 302 302 303 303 301 302 298 297 296 296 297 297 298 302
300 300 300 301 300 290 286 286 290 291 292 293 300 298 292 291 290 297 298 296 296 296 295 295 296 295 297 299 299 298 298 298 298 298 297 296 297 299 300 301 301 301 303 302 296 301 301 300 299 297 294 297 299 297 299 298 302 302 302 302 301 300 301 301 302 301 301 302 302 299 299 296 297 298
301 299 299 299 300 292 289 288 289 289 289 295 299 293 291 291 290 294 297 295 295 295 294 295 298 295 295 297 299 299 299 298 297 297 296 295 294 296 298 299 301 302 302 299 299 301 302 300 296 300 298 295 299 298 298 297 297 303 301 301 301 300 299 300 301 301 301 301 301 295 295 296 296 296
300 300 299 298 291 289 288 288 288 289 289 293 292 290 290 290 292 296 296 295 295 294 295 296 297 297 296 294 296 297 297 296 295 295 295 295 293 293 294 295 297 298 297 297 297 297 302 300 296 296 299 298 299 298 296 298 299 299 299 303 302 302 301 299 300 301 301 301 302 301 301 300 300 300
300 296 293 290 289 288 289 288 289 290 291 289 289 289 290 295 296 295 295 295 294 298 298 297 295 294 295 296 296 295 295 295 296 295 295 295 294 295 295 295 293 295 298 298 297 297 300 302 301 294 296 297 299 296 296 298 298 299 299 300 298 301 303 299 299 299 300 302 301 300 299 299 300 299
292 291 289 289 289 291 292 294 296 297 298 293 291 289 290 296 296 295 295 294 295 298 298 297 299 300 298 295 295 295 295 294 296 294 296 298 303 297 298 302 302 298 296 297 298 297 298 300 299 298 299 297 300 299 297 298 300 299 298 300 301 302 300 298 300 299 299 300 300 300 300 299 299 299
297 295 295 295 294 294 294 294 295 295 295 295 296 297 297 297 297 296 297 299 299 299 298 296 297 297 296 295 296 297 296 296 297 294 294 295 297 296 298 300 303 303 301 299 298 298 298 300 299 299 302 299 296 296 294 295 300 301 302 300 299 297 300 301 301 300 299 299 300 299 300 299 298 297
295 296 294 293 295 296 297 296 296 297 296 295 295 297 297 299 298 297 297 298 297 298 299 298 295 295 297 299 299 298 298 298 299 294 293 295 298 296 298 302 302 299 302 301 300 299 298 300 300 300 301 301 302 299 294 296 299 300 301 300 299 301 300 300 301 301 298 298 299 299 301 299 299 300
295 294 294 295 296 296 295 296 297 296 297 297 297 297 298 298 298 297 297 298 300 300 297 297 297 297 297 298 299 298 300 301 300 296 295 294 296 296 297 301 301 300 301 302 300 299 298 299 299 299 299 300 300 300 299 300 300 299 299 301 300 300 302 300 299 301 299 298 299 298 299 301 300 299
293 293 294 294 294 295 295 296 296 296 296 296 296 296 294 296 297 297 297 299 300 298 297 297 297 298 298 300 300 299 299 301 300 295 292 296 294 298 300 300 301 299 298 299 300 298 296 296 297 298 298 298 299 300 301 300 301 301 299 299 298 300 302 300 299 298 298 298 297 297 298 298 300 300
293 293 293 294 294 294 294 295 295 295 295 295 296 297 296 296 296 295 297 298 297 298 298 297 298 297 297 298 298 298 298 298 299 299 295 293 293 296 298 299 299 299 298 300 299 297 296 296 297 300 300 299 297 297 297 302 302 301 300 299 299 299 301 301 300 299 297 297 296 296 297 297 298 300
291 292 293 293 294 295 295 294 293 294 295 295 296 297 298 299 296 296 297 297 298 297 295 296 294 296 295 294 294 294 294 293 295 295 295 293 293 293 294 297 298 298 298 298 299 296 295 295 296 300 300 298 293 294 297 295 299 303 300 301 299 298 300 300 299 298 298 298 296 296 295 295 297 299
292 293 292 293 294 294 294 295 294 294 294 294 294 295 296 297 297 298 298 295 296 294 293 293 292 293 293 292 291 289 289 289 291 291 291 292 291 291 293 294 294 296 296 297 296 293 293 296 296 298 299 295 293 289 294 296 293 296 301 300 301 300 301 301 300 300 301 299 298 295 295 296 296 298
292 293 293 293 294 294 294 293 293 293 293 293 293 293 294 295 295 294 292 292 294 293 294 294 293 293 292 291 292 291 291 290 289 289 290 291 291 292 291 292 293 293 294 295 292 293 293 297 297 298 297 295 291 290 290 293 294 293 295 301 300 302 300 299 299 299 300 299 296 297 296 294 296 298
292 292 292 293 294 295 294 294 293 293 293 294 294 293 293 293 292 292 292 292 294 295 295 294 294 293 291 291 290 290 289 289 290 290 290 291 290 290 290 290 291 291 290 293 294 293 294 296 297 297 296 295 294 294 295 292 292 295 295 295 301 302 300 299 298 299 298 297 298 298 296 297 296 292
290 291 292 292 293 293 293 292 292 293 293 294 294 294 293 292 292 293 293 292 292 292 293 292 292 291 291 291 290 290 290 290 290 290 290 290 290 289 290 290 289 290 291 293 292 292 292 293 293 294 295 295 294 293 293 292 292 292 295 295 292 297 300 299 297 297 296 297 296 294 294 296 295 298
290 290 291 291 292 291 292 292 292 292 292 293 294 294 293 293 293 293 293 292 290 291 291 291 291 291 291 291 290 290 289 289 289 289 289 290 288 288 287 286 292 291 293 293 292 293 292 292 291 287 289 293 293 293 292 292 292 293 292 294 291 291 292 294 298 298 296 298 296 295 294 293 293 295
291 291 292 291 291 291 292 292 291 291 292 293 293 292 292 292 292 291 290 289 291 290 290 290 290 289 290 290 289 287 288 287 287 288 287 289 289 289 289 290 291 292 292 291 291 292 293 294 293 292 293 293 293 291 290 289 289 290 290 290 292 292 292 291 291 293 297 296 295 292 292 293 294 289
291 292 292 291 292 292 292 292 291 291 292 292 292 291 291 291 291 291 291 291 290 289 290 289 289 289 288 287 287 286 287 286 287 287 287 287 288 289 289 289 290 290 290 291 292 291 292 293 293 293 293 291 289 291 289 288 288 289 289 291 291 291 294 292 292 291 291 291 292 294 296 293 291 289
294 293 293 292 293 293 292 293 291 291 292 292 291 290 290 291 291 290 290 289 289 289 289 289 289 289 288 287 286 287 286 286 286 286 286 286 287 287 288 288 288 289 289 289 291 291 291 292 291 292 291 289 289 290 288 288 289 289 289 288 289 289 290 291 293 293 293 292 291 291 291 291 293 293
293 294 294 293 293 293 292 292 291 290 290 291 291 291 289 290 289 290 290 289 289 289 288 289 288 287 287 286 286 287 286 286 286 286 286 286 286 286 286 287 287 288 288 288 289 290 290 291 290 291 290 289 288 288 287 287 287 287 288 287 287 288 289 289 288 289 290 290 292 291 291 291 291 291
Wind_Speed
5 4 6 6 5 5 4 4 4 5 4 4 4 4 5 5 5 5 5 5 5 3 5 4 3 3 3 5 3 3 4 5 5 5 5 7 7 11 16 18 20 21 22 22 23 23 24 24 24 24 24 23 22 21 22 23 23 23 23 22 21 19 19 19 18 18 17 17 17 20 21 21 17 17
5 5 4 4 5 5 4 5 5 5 6 5 5 5 5 5 6 5 6 8 5 5 3 5 5 3 4 3 4 4 5 7 7 5 6 6 7 13 15 16 17 18 19 19 20 22 24 25 25 25 23 22 23 24 24 24 24 24 22 21 20 19 20 19 19 18 18 18 18 20 21 21 20 19
4 5 6 4 5 3 4 4 4 4 4 6 5 5 4 5 6 6 5 8 4 4 5 6 6 6 6 4 4 3 4 4 5 4 5 6 10 13 11 14 14 15 16 17 17 18 21 23 24 25 25 24 25 25 25 24 22 22 21 20 20 20 19 20 19 19 19 18 20 21 21 20 20 20
5 5 6 6 6 5 4 5 5 5 5 4 5 5 5 6 6 6 5 7 11 4 6 6 5 7 6 4 5 6 6 6 8 6 7 8 10 7 7 12 14 14 15 16 16 17 18 20 23 24 25 26 26 24 22 21 21 21 21 21 20 20 16 16 20 21 19 20 21 21 21 22 22 22
5 5 6 6 6 4 5 5 5 5 5 4 5 4 5 6 5 6 6 7 10 7 5 6 6 4 3 5 6 7 7 7 6 5 6 7 7 6 6 7 12 14 15 15 16 17 17 18 19 20 21 22 22 21 20 19 18 20 20 20 20 20 17 16 17 22 21 21 22 22 22 22 22 22
4 5 6 7 6 6 7 6 6 6 5 6 5 5 6 7 7 7 6 8 6 10 4 6 3 4 4 6 3 6 7 7 5 7 7 5 6 6 6 6 7 14 15 15 16 16 17 17 18 18 19 20 20 20 20 20 20 18 16 16 17 17 18 20 18 17 18 20 22 22 22 22 22 20
4 5 6 7 6 3 5 7 7 5 6 5 6 5 5 6 6 6 7 5 7 9 9 4 6 5 3 6 6 5 6 6 4 5 7 7 5 5 7 7 6 12 14 15 15 16 17 17 17 17 18 18 19 19 20 20 20 19 17 15 14 14 14 14 15 18 18 20 22 22 22 21 20 20
5 6 6 7 5 3 5 7 6 5 5 5 6 6 5 6 7 4 5 7 7 6 8 4 4 5 6 7 5 4 4 6 6 6 7 5 6 7 6 7 7 9 14 15 15 15 15 16 16 17 17 18 18 18 19 19 18 19 19 19 17 15 15 16 17 19 23 21 21 22 22 20 20 20
9 8 7 7 5 5 7 7 6 5 6 4 4 6 6 7 5 4 6 7 6 6 7 7 5 5 5 5 7 4 5 5 6 6 6 7 7 7 7 6 7 11 15 14 14 15 15 16 16 17 17 17 17 17 17 17 17 16 17 17 14 14 14 13 13 13 16 18 20 19 18 20 21 21
9 9 9 8 6 6 7 8 7 5 6 6 6 8 9 5 6 7 6 6 6 7 8 8 8 4 5 5 6 6 3 5 6 6 5 5 6 7 7 6 5 5 6 6 7 9 11 14 17 17 16 16 16 16 15 14 14 14 14 13 15 16 15 16 16 16 17 17 17 19 18 17 20 21
7 8 7 7 7 7 7 8 8 7 7 6 8 8 8 5 6 7 6 4 6 7 8 6 7 6 4 4 8 6 3 4 4 6 8 8 6 5 6 7 5 4 6 9 12 10 10 11 10 11 12 13 14 15 14 11 13 14 14 15 16 17 16 17 16 15 16 17 16 16 17 17 18 21
5 6 5 6 6 7 7 7 6 5 6 5 7 7 5 6 6 6 5 5 5 6 5 6 6 4 5 4 6 6 4 5 5 5 6 7 9 10 4 5 7 5 4 6 6 6 8 9 10 11 10 11 11 10 9 12 13 14 13 13 16 17 15 15 15 15 17 17 17 17 16 18 18 19
3 2 3 4 5 5 6 7 6 5 6 6 7 6 5 6 6 6 5 5 4 5 5 6 5 6 7 7 7 6 5 7 8 5 4 7 7 8 10 9 5 5 8 7 6 5 6 4 4 4 3 1 1 4 7 6 9 10 10 10 11 13 14 15 16 16 16 17 17 17 18 18 16 16
2 3 3 3 5 5 5 6 4 2 3 4 5 5 4 4 4 5 4 4 4 4 5 7 7 7 7 7 6 6 7 6 5 6 6 9 8 7 10 8 5 6 7 7 8 5 2 2 3 3 2 3 3 2 1 1 2 3 5 7 8 10 11 12 14 15 16 16 16 16 15 16 16 15
4 3 2 2 3 4 4 5 7 7 8 8 7 5 3 3 4 5 5 6 4 5 6 6 6 7 9 9 7 7 8 6 6 6 6 6 6 6 7 10 5 0 4 5 4 4 3 1 2 2 3 3 3 3 2 4 2 2 4 5 6 6 7 8 10 11 12 13 13 13 12 12 11 13
2 3 4 4 4 5 8 5 5 6 8 9 8 7 5 3 2 4 4 5 5 5 6 5 6 6 6 6 6 6 6 6 6 6 6 7 8 8 8 6 7 2 5 4 3 3 5 4 3 4 4 4 4 4 6 7 6 5 4 4 5 5 5 5 6 7 8 8 9 9 9 9 10 10
6 5 5 4 5 5 10 8 7 6 6 7 7 7 5 5 8 6 1 5 6 4 4 4 4 4 5 6 4 6 7 6 7 6 6 6 6 7 8 6 5 4 6 4 5 2 4 5 2 5 4 4 4 5 6 8 6 5 4 4 4 5 3 2 3 4 5 8 9 9 11 11 10 8
5 5 5 4 5 6 7 7 8 8 6 6 6 5 5 6 6 7 8 8 4 1 2 2 3 4 3 2 4 5 5 5 5 6 6 6 6 6 7 7 5 4 7 4 3 2 5 5 4 5 4 3 3 3 3 5 4 4 3 2 2 2 2 1 2 3 5 7 9 11 10 10 11 11
7 6 5 5 5 6 7 8 9 6 5 5 5 5 6 6 5 6 6 6 5 5 5 4 4 3 3 3 4 5 5 4 5 5 6 6 6 5 6 2 4 5 7 7 3 3 4 5 3 4 3 3 2 3 2 4 4 4 4 5 4 2 1 3 4 4 4 4 5 5 6 8 10 10
6 6 6 6 6 7 7 11 12 10 6 6 6 6 5 5 4 5 5 6 7 6 4 4 3 3 3 4 4 6 6 5 5 4 2 3 5 4 3 4 5 6 7 7 4 2 3 4 2 2 2 2 3 3 3 5 7 6 4 2 1 1 2 1 1 2 4 5 6 7 8 7 7 7
7 7 7 6 6 6 7 11 12 13 8 6 5 5 5 4 4 3 3 5 6 5 6 6 6 6 7 7 6 7 9 8 6 3 5 6 5 4 4 4 5 6 5 6 5 1 2 4 3 1 2 2 3 4 4 4 5 6 4 2 2 2 1 0 1 2 4 6 7 8 9 10 10 10
5 7 11 8 6 6 6 8 10 12 8 6 6 6 5 5 4 4 5 4 4 6 5 7 5 5 6 6 5 6 8 8 7 6 6 4 3 4 3 3 2 2 3 6 5 1 2 2 3 1 2 2 1 2 2 4 4 4 3 3 2 1 3 4 4 5 4 5 6 7 8 9 8 6
2 2 5 7 5 4 3 4 6 8 7 5 5 4 4 3 4 4 5 5 5 5 4 4 5 3 6 5 4 4 5 5 6 5 3 3 3 4 2 1 1 1 2 4 6 1 3 3 2 2 1 2 2 0 2 4 4 4 3 2 3 4 0 1 1 1 3 4 6 6 7 7 7 4
3 2 1 2 3 1 1 2 3 4 5 4 3 2 2 3 3 4 5 4 3 2 2 2 2 3 3 3 3 3 4 4 4 3 3 3 3 3 2 2 2 1 2 2 6 1 0 1 2 2 1 1 2 3 4 5 5 4 4 3 4 5 5 5 4 5 3 1 2 4 5 6 7 4
3 4 3 1 1 2 2 2 2 2 2 2 2 1 1 1 4 5 4 4 5 3 3 2 2 2 3 2 2 2 3 3 3 2 2 1 1 2 2 2 1 1 2 2 5 1 1 0 2 1 3 3 1 2 2 2 4 5 5 4 4 4 4 4 4 4 6 7 7 5 2 3 9 6
1 1 2 3 3 2 3 4 3 3 4 5 3 2 5 4 3 2 2 3 3 3 3 3 2 2 3 3 3 2 2 3 3 3 2 1 1 2 2 2 1 1 1 1 3 0 2 0 1 1 1 2 1 1 1 3 3 3 3 3 3 3 2 2 3 3 3 2 3 4 5 8 4 6
3 3 4 4 3 4 4 4 5 5 6 5 4 6 7 5 4 3 1 1 2 2 3 3 4 3 2 3 5 5 5 3 3 3 3 3 2 2 3 3 3 3 3 3 2 1 1 1 1 1 1 1 1 1 0 1 2 3 2 2 2 2 2 1 2 2 1 1 1 2 2 3 4 2
4 5 5 2 3 4 5 5 5 5 5 5 6 6 6 6 5 2 1 1 1 2 3 3 4 4 3 2 3 4 4 5 5 5 4 3 2 2 2 3 4 4 3 2 1 1 2 3 1 1 2 2 2 2 3 0 1 1 2 2 1 0 1 2 2 2 1 1 0 1 1 1 1 1
5 4 5 5 6 6 7 8 7 7 9 11 9 8 8 6 3 3 2 2 1 3 4 3 4 5 3 3 4 4 6 7 6 5 4 3 2 1 2 2 2 2 2 1 1 1 1 3 3 2 1 0 1 1 0 1 0 1 1 2 1 2 2 1 1 2 2 1 1 1 1 1 1 1
9 9 8 9 10 9 8 5 5 5 6 7 9 8 7 5 4 5 4 3 3 5 5 3 4 4 3 3 4 5 4 4 5 4 4 5 2 3 3 1 0 0 0 2 2 1 1 1 4 5 3 1 1 2 3 1 2 1 1 1 2 4 1 1 1 0 1 2 2 2 1 1 2 1
6 6 6 6 7 9 10 10 8 8 7 5 6 5 6 6 7 6 6 6 6 6 5 5 4 3 3 4 4 3 3 4 4 3 3 2 3 1 1 0 1 1 0 1 1 2 2 1 2 4 3 2 2 3 2 2 1 2 1 2 1 2 1 2 1 1 1 2 2 2 2 2 2 2
4 4 6 6 5 4 5 5 4 4 4 5 5 6 5 6 6 8 8 6 4 4 3 3 2 4 3 3 3 3 3 3 3 2 2 2 2 2 1 1 0 2 3 0 1 2 3 3 3 3 3 3 2 1 2 2 2 3 3 2 3 4 3 4 3 2 1 1 3 3 2 2 3 2
2 2 4 6 6 5 6 6 5 5 4 5 5 5 5 4 4 5 6 7 8 5 4 4 3 3 2 3 2 2 4 3 2 1 2 2 2 2 1 2 2 1 2 2 2 1 2 4 4 3 4 3 3 2 2 2 4 3 3 2 1 3 3 3 3 3 0 1 3 3 4 4 3 3
2 5 5 6 6 6 5 6 6 4 3 4 4 4 4 3 3 3 5 6 2 1 2 2 1 2 2 3 2 3 4 4 2 1 1 3 2 3 3 3 3 2 2 3 3 1 1 3 3 3 3 4 5 6 5 5 4 3 3 2 2 4 3 2 3 2 2 2 2 4 4 5 4 3
4 5 5 6 5 6 5 5 6 4 3 3 2 3 2 2 3 3 3 3 2 2 2 2 1 1 1 2 3 4 4 4 4 2 1 1 2 4 4 4 4 3 3 3 3 1 1 2 2 2 2 3 3 4 9 8 4 5 2 3 4 4 4 3 2 2 2 1 1 3 5 5 6 4
5 5 6 7 7 6 6 7 5 4 4 3 3 2 2 1 1 3 3 5 5 4 3 1 1 1 2 1 2 3 5 5 4 3 3 2 3 3 3 4 4 4 2 4 4 2 2 3 3 3 4 3 3 4 3 9 10 3 3 3 2 2 4 3 2 1 2 3 3 3 4 7 6 6
7 5 5 6 7 6 7 7 5 5 3 1 1 1 1 1 1 0 0 1 3 6 7 6 6 8 7 5 5 4 4 5 5 4 3 2 2 2 3 4 5 4 4 5 3 2 2 3 3 4 5 3 4 4 4 1 7 10 5 5 3 3 3 2 2 4 4 3 3 4 6 5 7 7
7 7 7 6 6 7 7 5 4 3 2 1 0 0 0 1 1 2 1 0 0 2 2 1 4 2 1 4 6 3 1 3 3 3 3 3 3 3 2 4 4 4 5 4 1 1 2 2 3 4 5 6 4 3 3 1 0 5 14 7 5 4 1 2 3 5 5 2 4 4 2 5 7 7
7 8 7 7 7 7 7 6 4 3 2 2 2 3 2 2 1 1 2 2 1 2 2 2 2 3 4 5 5 4 2 2 2 2 3 4 3 4 4 3 4 3 3 4 1 1 1 1 2 2 4 4 4 2 2 1 2 1 3 12 7 5 4 3 5 5 4 5 4 2 5 6 8 11
9 7 7 6 6 5 4 3 3 3 3 3 3 3 3 3 3 3 2 2 3 3 2 3 3 4 3 2 1 1 2 2 1 1 2 3 3 2 3 3 3 3 3 3 3 2 1 1 2 3 4 6 2 2 3 2 2 1 1 3 4 7 6 2 4 5 7 5 2 4 7 6 7 3
6 6 6 5 4 4 4 3 3 3 3 3 3 3 2 2 3 2 2 3 2 3 3 3 2 2 2 1 1 1 0 0 0 1 2 2 2 4 3 3 2 3 2 3 2 3 4 4 6 7 5 4 2 1 2 2 2 2 3 1 2 5 8 8 7 6 6 6 6 7 7 7 5 6
3 5 4 4 5 5 4 3 2 2 2 2 3 3 3 2 3 4 4 4 3 3 2 2 1 1 1 0 0 0 1 0 0 1 1 2 2 2 2 2 2 3 3 4 4 4 5 5 4 1 1 1 1 0 1 1 2 3 3 4 3 4 4 7 8 8 8 7 6 5 4 3 3 3
8 7 5 4 5 5 5 4 2 4 3 3 4 3 3 3 3 3 3 3 2 2 2 2 1 1 1 0 1 1 1 1 1 2 2 2 2 2 2 3 2 2 2 1 1 2 3 4 4 3 4 5 3 2 2 1 1 1 3 4 6 7 7 3 4 9 12 14 14 11 8 7 6 6
4 4 5 7 7 6 5 3 4 4 3 3 4 3 4 4 4 3 3 3 3 3 2 1 0 0 1 1 0 1 2 1 1 1 1 1 2 2 2 2 2 2 2 2 2 3 3 4 5 4 4 3 2 2 2 2 2 2 3 3 4 6 7 8 11 11 7 7 9 13 16 16 15 16
6 6 7 5 5 6 6 6 3 3 2 3 2 3 2 2 3 3 2 2 2 2 1 1 0 0 0 0 1 2 1 1 2 1 1 1 2 2 2 2 2 3 4 4 2 3 4 4 4 4 5 3 3 2 1 1 2 3 3 4 5 4 5 6 7 7 7 7 14 17 11 10 13 16
Wind_Direction
185 180 182 198 220 229 195 205 208 209 195 201 191 179 198 183 240 278 279 256 248 266 205 224 286 242 253 253 239 242 235 238 229 217 215 221 224 234 233 237 239 243 246 248 249 249 248 247 245 244 243 242 241 240 241 243 244 245 245 244 242 241 239 238 237 236 234 231 227 229 234 238 237 237
197 198 197 206 220 221 189 217 212 202 207 198 201 204 204 179 210 208 254 276 193 244 252 206 244 245 247 223 245 206 231 242 236 220 220 221 230 238 237 236 239 242 245 247 248 250 250 250 250 248 246 243 242 242 242 243 243 243 243 242 240 238 237 236 236 234 233 230 225 227 230 232 233 234
195 215 225 221 237 215 224 234 230 225 204 214 202 213 182 194 206 210 206 276 255 170 239 238 234 240 249 238 248 243 235 252 237 229 226 234 242 250 256 253 245 243 246 246 248 247 249 251 253 254 254 251 248 247 245 244 243 242 241 240 239 238 236 236 235 233 231 227 227 228 229 228 227 227
211 214 234 231 232 220 219 232 229 224 227 211 206 196 195 208 210 200 211 232 271 204 236 244 250 233 257 255 258 261 261 247 246 248 247 254 261 256 252 260 257 251 248 248 248 247 248 249 250 252 253 255 255 254 251 247 244 242 240 238 237 237 232 227 232 233 229 227 227 228 228 226 225 225
207 220 231 236 225 191 214 232 230 230 219 210 224 207 200 216 196 191 201 236 261 273 227 255 245 253 230 267 216 242 251 263 254 249 246 249 245 250 249 255 259 255 251 248 247 247 246 246 247 248 250 251 254 257 259 256 250 244 241 239 239 238 234 230 225 232 230 228 228 230 229 228 226 225
211 209 228 251 234 186 218 216 216 212 200 205 203 211 201 211 208 196 193 223 249 268 278 279 243 242 198 252 198 231 249 246 242 257 255 236 230 243 245 245 251 252 252 249 248 247 246 245 244 245 247 248 249 250 252 253 254 254 254 253 250 245 241 239 235 229 224 227 231 232 231 230 230 228
228 221 234 252 254 203 226 232 232 210 212 195 210 218 202 223 226 195 209 213 241 258 271 225 274 267 219 225 257 222 242 262 237 254 257 254 247 233 242 247 247 256 251 250 248 247 247 246 245 244 244 245 246 247 247 249 250 251 247 242 238 239 243 249 250 248 238 230 230 232 232 230 227 223
260 252 255 253 252 246 249 259 252 241 230 220 219 224 205 221 237 178 196 220 238 255 269 257 229 278 292 270 249 253 262 274 274 251 271 263 250 254 239 241 250 254 253 251 251 252 249 249 248 246 246 245 245 245 246 247 247 246 244 245 246 241 233 228 230 236 242 242 238 234 231 227 224 221
263 262 253 261 264 255 249 256 256 246 241 233 231 247 241 222 232 204 212 222 213 248 263 284 251 232 257 271 292 285 284 271 257 262 245 267 270 261 250 243 246 254 262 261 255 252 252 252 251 250 248 248 248 248 247 247 247 249 247 247 250 249 251 254 248 243 244 243 244 242 233 226 222 219
236 239 248 258 261 255 246 256 254 242 233 228 237 249 258 215 223 245 234 219 201 221 242 251 283 250 235 273 269 281 217 263 284 284 262 237 243 249 266 247 239 239 245 257 253 250 253 250 249 248 250 251 252 254 256 256 257 254 252 249 246 245 242 241 240 240 244 241 240 243 241 233 224 219
231 235 229 240 249 255 248 248 246 242 239 239 247 242 248 238 217 234 237 222 200 215 228 251 251 269 260 236 276 268 171 223 234 281 304 296 267 235 235 270 261 241 256 251 252 256 252 253 254 254 251 254 256 255 257 257 251 249 246 242 246 245 244 245 243 241 241 243 240 238 235 232 228 221
226 238 236 237 230 230 243 244 246 237 252 249 251 246 222 246 228 231 233 225 219 217 223 240 257 247 269 247 236 264 289 284 266 235 244 271 290 294 254 217 279 281 243 270 281 257 263 265 264 267 265 257 260 268 264 253 253 253 245 237 246 257 255 254 249 242 240 237 233 232 232 235 232 227
275 258 231 225 233 234 244 248 247 251 258 258 262 261 224 224 224 232 228 230 229 231 227 251 239 262 267 256 264 276 256 252 259 267 215 254 260 274 290 283 247 258 279 278 266 264 260 272 277 290 283 345 313 243 245 261 259 265 266 258 250 248 255 258 256 250 241 236 232 230 225 228 225 224
326 303 290 284 279 271 270 267 272 254 252 251 250 261 249 238 230 232 240 239 227 231 247 253 269 272 271 279 261 257 260 259 263 264 244 257 259 265 276 275 249 228 247 269 272 254 251 236 290 272 307 13 357 345 327 337 326 295 278 267 262 262 261 254 253 253 252 246 240 235 229 226 220 203
339 335 314 315 316 322 344 11 24 7 18 18 6 346 310 276 265 258 254 254 241 246 252 262 264 263 274 276 275 269 276 270 268 271 267 267 283 277 288 296 318 43 254 244 254 281 45 45 240 38 28 360 357 0 349 351 348 303 284 273 264 258 252 253 250 249 247 250 249 243 235 227 203 180
331 336 350 2 12 36 24 22 8 1 11 16 3 0 355 348 271 256 254 284 288 267 270 272 266 281 281 297 306 314 326 326 317 298 290 283 284 285 281 277 286 10 4 322 301 307 13 6 69 72 28 24 28 12 2 356 357 356 340 326 301 277 265 254 244 232 224 218 213 206 190 168 162 171
22 19 16 19 36 23 18 19 5 357 355 1 3 9 11 24 48 54 14 249 245 287 290 286 291 305 329 320 328 356 338 320 307 314 311 312 309 308 301 303 304 15 340 304 303 356 10 352 42 76 47 39 42 27 19 13 4 358 340 344 327 321 318 269 228 214 186 180 171 171 168 167 158 149
26 24 17 15 20 17 21 14 8 5 5 8 20 31 48 62 52 42 40 43 48 137 244 298 300 27 28 351 328 334 327 324 324 323 314 319 317 315 307 314 350 27 5 1 310 26 8 6 48 57 46 40 42 41 11 9 2 360 5 18 35 21 14 312 235 191 181 169 166 162 158 153 151 162
36 27 28 33 30 23 23 18 0 357 345 8 44 63 71 75 57 51 42 39 37 41 47 56 57 51 39 26 1 345 336 317 306 297 290 303 313 304 299 38 44 26 21 4 358 64 6 351 53 43 31 13 34 22 15 22 8 357 360 7 14 42 148 188 187 173 159 152 159 158 156 160 165 170
37 40 35 34 32 28 26 8 355 355 14 40 55 64 69 77 71 68 74 61 54 61 60 59 53 41 31 28 26 14 358 343 328 322 319 11 356 334 24 35 19 28 11 19 13 89 40 351 31 32 0 349 19 355 7 358 5 358 351 346 356 340 358 4 128 170 160 162 165 162 160 161 163 157
39 43 43 40 34 28 27 5 360 357 20 39 41 41 43 49 48 40 50 75 60 53 60 56 46 30 27 21 19 13 359 3 339 349 44 23 342 18 39 36 37 29 3 19 15 8 42 13 1 326 358 354 357 355 354 349 353 355 3 350 260 244 216 289 174 141 158 161 168 168 167 163 159 170
42 45 51 52 46 38 24 7 6 3 17 39 28 24 26 26 24 4 352 343 351 7 31 32 28 33 22 20 8 18 0 6 15 43 55 349 351 54 48 64 31 325 16 18 352 14 8 326 6 352 331 326 324 330 345 347 356 355 11 26 45 186 197 191 182 182 182 178 173 174 171 171 168 177
54 33 48 56 57 59 51 24 24 19 24 43 30 22 24 20 16 347 342 345 344 357 7 10 6 2 14 17 11 3 358 12 39 50 52 22 48 63 53 15 311 350 352 9 348 55 355 12 26 4 354 35 310 240 326 358 1 3 4 26 64 47 135 264 203 210 180 186 185 188 186 184 177 194
4 42 41 77 100 32 43 71 54 57 36 52 42 33 36 12 351 336 330 333 334 317 328 312 322 318 328 335 340 342 1 24 34 42 43 49 55 64 69 55 57 118 270 310 353 51 41 333 334 20 16 185 55 339 344 7 9 9 8 12 44 35 64 82 87 68 70 234 245 234 213 190 187 199
29 357 350 309 122 144 233 226 162 136 114 89 100 93 71 267 299 313 304 312 331 314 314 311 318 318 324 319 326 356 0 359 353 359 27 56 70 89 77 62 45 256 253 285 337 249 75 33 323 352 30 55 12 338 341 350 18 18 13 10 34 24 29 47 49 49 43 45 41 40 98 171 199 208
274 252 246 279 244 221 239 255 251 225 183 177 150 185 210 254 291 279 297 305 314 312 314 321 316 329 337 331 343 349 359 341 334 326 314 278 217 202 180 178 164 26 301 5 341 135 135 64 341 73 33 71 8 343 19 43 358 1 360 20 24 13 6 30 51 51 44 32 45 15 354 7 127 203
243 236 245 258 290 320 318 312 303 290 298 263 228 201 200 198 225 246 275 307 313 319 321 322 289 348 339 327 321 318 320 334 322 315 295 289 263 230 225 226 225 239 275 300 293 285 132 137 214 116 116 168 137 34 340 107 83 354 11 16 6 12 7 358 37 48 36 59 68 7 27 34 19 293
239 245 244 246 322 292 277 269 262 258 246 248 265 243 227 201 197 182 215 239 279 302 311 331 338 322 320 305 302 316 316 312 314 304 298 287 275 261 269 247 238 237 247 248 250 237 137 128 157 252 149 159 155 155 138 229 281 324 307 298 237 283 43 15 18 12 21 344 92 102 120 96 154 225
254 272 296 297 287 275 268 268 268 259 245 234 234 237 234 220 222 205 172 198 200 278 281 285 231 231 259 268 284 300 307 306 304 304 299 296 240 300 256 251 213 231 242 229 237 243 235 154 148 142 118 152 125 135 223 116 301 266 316 323 70 343 344 16 5 359 331 320 354 11 21 291 246 187
285 289 283 274 273 273 267 254 251 250 245 239 227 221 210 218 218 208 212 149 211 248 246 250 269 265 296 295 297 297 303 311 308 316 311 329 323 19 29 50 131 83 186 261 248 235 245 132 151 149 113 189 212 176 188 195 204 246 256 269 304 279 237 310 311 335 313 324 322 309 271 227 254 254
276 286 276 271 274 270 267 259 258 264 271 269 254 233 220 226 224 217 207 205 219 227 225 238 236 279 290 298 309 320 321 312 304 299 298 301 288 3 5 9 318 278 268 28 227 212 238 227 167 176 180 167 218 226 194 193 276 262 254 228 241 264 319 320 283 251 271 279 287 269 260 237 229 225
284 288 295 289 279 274 274 258 254 244 244 246 248 246 235 229 227 228 229 244 243 243 212 255 287 291 300 305 307 313 303 284 292 305 296 291 298 327 308 311 36 295 293 250 130 151 199 225 218 217 240 197 249 146 154 195 238 254 261 238 230 264 264 259 272 271 189 299 297 286 276 277 276 214
253 255 274 279 282 267 263 268 253 257 260 258 241 248 240 231 225 223 219 223 227 228 224 243 257 281 312 285 274 284 302 279 279 264 290 290 263 295 257 257 249 237 271 263 201 234 228 225 230 255 263 260 258 187 183 244 231 218 235 234 232 256 251 233 234 246 127 267 270 288 295 288 259 257
267 267 272 263 251 260 247 250 252 241 218 240 252 242 248 237 228 235 237 244 267 97 183 207 211 245 251 278 295 303 286 295 265 164 244 288 282 263 236 241 246 215 214 258 273 237 232 223 210 227 243 253 250 231 226 221 240 222 214 228 230 254 253 255 239 233 235 259 294 296 294 292 289 263
212 254 262 263 250 243 236 239 240 232 229 236 252 262 219 215 219 213 216 230 211 223 244 238 216 271 291 286 321 306 298 296 299 277 209 226 247 253 257 257 255 223 224 239 243 196 182 215 205 213 238 250 257 221 216 224 227 239 236 238 227 232 253 220 230 194 206 218 188 269 287 281 278 272
244 215 234 253 252 241 240 237 229 229 227 234 235 285 289 249 159 191 206 186 158 121 77 284 198 168 124 48 328 323 312 309 288 289 287 239 245 251 251 247 258 263 231 238 247 183 172 188 192 202 213 216 226 249 247 210 212 224 212 238 186 218 249 252 246 238 233 239 207 233 256 272 279 280
238 234 221 232 241 230 244 238 219 221 222 271 346 328 305 348 36 220 68 125 139 143 153 180 183 158 154 155 84 26 352 326 299 310 298 281 249 251 261 256 243 250 253 242 218 194 170 175 192 210 217 213 229 231 237 89 234 236 232 245 251 222 242 266 273 264 239 234 244 210 244 265 276 279
227 227 224 226 224 224 231 253 244 238 230 222 266 324 329 179 144 115 88 295 20 53 107 102 298 320 115 116 112 107 48 283 296 309 312 321 324 299 264 275 277 264 263 274 209 200 190 186 197 211 215 214 214 230 261 280 229 213 210 214 240 249 123 263 262 256 266 214 240 247 223 244 254 261
221 218 217 223 224 205 206 212 203 214 222 202 195 192 178 162 123 99 95 104 135 118 104 78 49 46 57 57 78 119 124 253 267 334 337 328 327 328 328 313 298 290 290 288 307 98 136 197 213 231 237 249 230 218 257 263 256 4 193 215 237 268 254 250 276 283 286 288 275 254 240 243 271 282
226 222 225 220 226 191 181 178 213 210 211 195 186 183 167 143 141 136 135 126 109 97 85 72 72 64 57 62 84 125 202 214 184 309 310 304 320 331 334 328 312 313 305 316 2 21 40 315 256 222 221 228 270 304 285 281 293 278 1 54 251 242 270 321 266 289 299 281 277 293 296 299 297 278
230 224 233 223 219 181 169 189 219 206 198 186 147 117 118 126 124 119 119 103 100 97 90 86 78 82 83 97 147 203 192 83 3 352 341 331 329 331 342 327 346 327 334 22 8 9 4 338 305 292 273 278 265 236 230 252 269 327 339 324 106 271 266 252 262 269 259 278 288 291 284 282 283 298
272 258 244 204 195 177 155 188 200 202 209 152 124 121 113 95 96 101 95 86 88 91 101 112 124 125 126 132 190 195 139 102 345 358 347 329 336 341 357 9 27 357 28 30 6 357 338 329 330 32 98 243 262 233 31 11 334 331 318 310 319 189 234 269 261 251 258 275 288 282 273 265 228 253
208 210 196 184 163 135 139 168 183 210 196 152 142 138 129 116 120 118 118 120 124 129 136 145 148 149 132 101 27 29 35 31 7 5 3 6 360 6 15 20 11 6 11 7 341 345 342 352 11 35 52 56 32 37 50 357 327 314 328 340 339 332 333 321 265 257 250 250 244 245 252 272 295 283
200 201 179 165 147 152 167 146 201 219 201 167 128 133 137 145 152 154 156 155 154 154 150 123 113 73 61 33 86 66 47 35 15 24 35 28 20 33 29 25 16 25 19 355 5 26 6 23 22 7 48 38 14 35 26 346 0 2 356 336 322 342 339 336 334 337 325 282 259 235 249 259 258 262
192 184 160 158 148 155 162 168 195 186 171 127 129 110 126 121 127 148 161 161 149 149 156 156 146 145 59 37 51 56 37 47 76 64 63 64 60 55 45 37 36 39 36 6 350 16 11 23 27 31 61 48 28 29 15 9 351 347 354 344 342 339 338 341 339 334 324 315 309 313 308 280 264 262